When you browse on this site, cookies collect data to enhance your experience and personalize the content and advertising you see.
Visit our Privacy Policy to learn more. By continuing to use the site, you agree to this use of cookies and data.
  • In Lithuania
  • List of Countries
  • For 7 days
  • Water Temperature
  • Satellite Maps
  • Weather Map
  • Weather Widgets
  • user-avatar
    Login

    Hourly Weather Graz

    Today, 20 April, Saturday

    Time Temperature Precipitation Wind Pressure Humidity
    00:00 +10°C° 0 mm 1 mps 733 mmHg 65%
    01:00 +11°C° 0 mm 1 mps 733 mmHg 65%
    02:00 +10°C° 0 mm 1 mps 733 mmHg 68%
    03:00 +10°C° 0 mm 1 mps 732 mmHg 70%
    04:00 +9°C° 0 mm 1 mps 732 mmHg 72%
    05:00 +10°C° 0 mm 1 mps 733 mmHg 69%
    06:00 +11°C° 0 mm 1 mps 733 mmHg 67%
    07:00 +13°C° 0 mm 1 mps 733 mmHg 60%
    08:00 +15°C° 0 mm 1 mps 733 mmHg 53%
    09:00 +18°C° 0 mm 1 mps 733 mmHg 47%
    10:00 +20°C° 0 mm 1 mps 733 mmHg 40%
    11:00 +20°C° 0 mm 1 mps 733 mmHg 38%
    12:00 +20°C° 0 mm 2 mps 732 mmHg 35%
    13:00 +21°C° 0 mm 2 mps 732 mmHg 32%
    14:00 +20°C° 0 mm 2 mps 732 mmHg 34%
    15:00 +20°C° 0 mm 2 mps 731 mmHg 35%
    16:00 +20°C° 0 mm 2 mps 731 mmHg 36%
    17:00 +17°C° 0 mm 2 mps 731 mmHg 44%
    18:00 +15°C° 0 mm 1 mps 730 mmHg 53%
    19:00 +13°C° 0 mm 1 mps 730 mmHg 62%
    20:00 +12°C° 0 mm 1 mps 730 mmHg 64%
    21:00 +11°C° 0 mm 1 mps 730 mmHg 67%
    22:00 +10°C° 0 mm 1 mps 730 mmHg 69%
    23:00 +10°C° 0 mm 1 mps 730 mmHg 71%

    Tomorrow, 21 April, Sunday

    Time Temperature Precipitation Wind Pressure Humidity
    00:00 +10°C° 0 mm 1 mps 730 mmHg 73%
    01:00 +9°C° 0 mm 1 mps 730 mmHg 75%
    02:00 +9°C° 0 mm 1 mps 730 mmHg 76%
    03:00 +9°C° 0 mm 1 mps 729 mmHg 78%
    04:00 +8°C° 0 mm 1 mps 729 mmHg 79%
    05:00 +10°C° 0 mm 1 mps 729 mmHg 74%
    06:00 +11°C° 0 mm 1 mps 729 mmHg 70%
    07:00 +12°C° 0 mm 0 mps 729 mmHg 65%
    08:00 +15°C° 0 mm 1 mps 729 mmHg 58%
    09:00 +18°C° 0 mm 1 mps 729 mmHg 51%
    10:00 +21°C° 0 mm 1 mps 729 mmHg 44%
    11:00 +21°C° 0 mm 1 mps 728 mmHg 42%
    12:00 +22°C° 0 mm 1 mps 728 mmHg 39%
    13:00 +21°C° 0 mm 2 mps 727 mmHg 37%
    14:00 +21°C° 0 mm 2 mps 727 mmHg 39%
    15:00 +20°C° 0 mm 2 mps 726 mmHg 40%
    16:00 +20°C° 0 mm 2 mps 726 mmHg 42%
    17:00 +18°C° 0 mm 2 mps 726 mmHg 50%
    18:00 +16°C° 0 mm 1 mps 725 mmHg 58%
    19:00 +13°C° 0 mm 1 mps 725 mmHg 67%
    20:00 +13°C° 0 mm 1 mps 725 mmHg 70%
    21:00 +11°C° 0 mm 0 mps 725 mmHg 73%
    22:00 +10°C° 0 mm 0 mps 725 mmHg 76%
    23:00 +10°C° 0 mm 1 mps 725 mmHg 77%

    Day after tomorrow, 22 April, Monday

    Time Temperature Precipitation Wind Pressure Humidity
    00:00 +10°C° 0 mm 1 mps 725 mmHg 78%
    01:00 +10°C° 0 mm 1 mps 725 mmHg 80%
    02:00 +9°C° 0 mm 1 mps 724 mmHg 81%
    03:00 +9°C° 0 mm 1 mps 724 mmHg 83%
    04:00 +9°C° 0 mm 1 mps 723 mmHg 85%
    05:00 +10°C° 0 mm 1 mps 723 mmHg 80%
    06:00 +11°C° 0 mm 1 mps 723 mmHg 76%
    07:00 +12°C° 0 mm 0 mps 723 mmHg 71%
    08:00 +15°C° 0 mm 1 mps 722 mmHg 63%
    09:00 +18°C° 0 mm 1 mps 722 mmHg 54%
    10:00 +20°C° 0 mm 1 mps 722 mmHg 46%
    11:00 +20°C° 0 mm 2 mps 721 mmHg 42%
    12:00 +20°C° 0 mm 2 mps 721 mmHg 38%
    13:00 +21°C° 0 mm 2 mps 720 mmHg 35%
    14:00 +21°C° 0 mm 2 mps 720 mmHg 35%
    15:00 +21°C° 0 mm 3 mps 719 mmHg 35%
    16:00 +21°C° 0 mm 3 mps 719 mmHg 36%
    17:00 +19°C° 0 mm 2 mps 718 mmHg 46%
    18:00 +16°C° 0 mm 2 mps 718 mmHg 56%
    19:00 +14°C° 0 mm 2 mps 718 mmHg 65%
    20:00 +13°C° 0 mm 1 mps 718 mmHg 71%
    21:00 +12°C° 0 mm 1 mps 718 mmHg 76%
    22:00 +11°C° 0 mm 1 mps 718 mmHg 81%
    23:00 +11°C° 0 mm 1 mps 718 mmHg 81%

    23 April, Tuesday

    Time Temperature Precipitation Wind Pressure Humidity
    00:00 +11°C° 0 mm 1 mps 718 mmHg 80%
    01:00 +11°C° 0 mm 1 mps 718 mmHg 80%
    02:00 +10°C° 0.1 mm 0 mps 717 mmHg 83%
    03:00 +9°C° 0.1 mm 0 mps 717 mmHg 87%
    04:00 +9°C° 0.1 mm 0 mps 716 mmHg 90%
    05:00 +10°C° 0.9 mm 1 mps 716 mmHg 92%
    06:00 +10°C° 0.9 mm 1 mps 717 mmHg 94%
    07:00 +10°C° 0.9 mm 2 mps 717 mmHg 96%
    08:00 +10°C° 0.6 mm 2 mps 717 mmHg 96%
    09:00 +10°C° 0.6 mm 2 mps 717 mmHg 95%
    10:00 +10°C° 0.6 mm 2 mps 717 mmHg 95%
    11:00 +10°C° 0.4 mm 2 mps 717 mmHg 95%
    12:00 +10°C° 0.4 mm 2 mps 717 mmHg 95%
    13:00 +10°C° 0.4 mm 2 mps 716 mmHg 95%
    14:00 +11°C° 0.2 mm 1 mps 716 mmHg 95%
    15:00 +12°C° 0.2 mm 1 mps 716 mmHg 96%
    16:00 +12°C° 0.2 mm 1 mps 716 mmHg 96%
    17:00 +12°C° 0.3 mm 1 mps 716 mmHg 96%
    18:00 +12°C° 0.3 mm 1 mps 716 mmHg 97%
    19:00 +11°C° 0.3 mm 0 mps 716 mmHg 97%
    20:00 +11°C° 0.1 mm 0 mps 716 mmHg 98%
    21:00 +11°C° 0.1 mm 0 mps 717 mmHg 98%
    22:00 +11°C° 0.1 mm 0 mps 717 mmHg 98%
    23:00 +12°C° 0.1 mm 1 mps 717 mmHg 98%

    24 April, Wednesday

    Time Temperature Precipitation Wind Pressure Humidity
    00:00 +12°C° 0.1 mm 1 mps 717 mmHg 98%
    01:00 +12°C° 0.1 mm 1 mps 717 mmHg 98%
    02:00 +12°C° 0 mm 1 mps 718 mmHg 98%
    03:00 +12°C° 0 mm 1 mps 718 mmHg 98%
    04:00 +12°C° 0 mm 1 mps 718 mmHg 98%
    05:00 +12°C° 0 mm 1 mps 718 mmHg 96%
    06:00 +13°C° 0 mm 1 mps 719 mmHg 94%
    07:00 +13°C° 0 mm 1 mps 719 mmHg 92%
    08:00 +15°C° 0 mm 1 mps 720 mmHg 86%
    09:00 +16°C° 0 mm 2 mps 720 mmHg 79%
    10:00 +18°C° 0 mm 2 mps 720 mmHg 73%
    11:00 +19°C° 0 mm 3 mps 720 mmHg 65%
    12:00 +21°C° 0 mm 4 mps 721 mmHg 56%
    13:00 +22°C° 0 mm 5 mps 721 mmHg 48%
    14:00 +22°C° 0 mm 4 mps 721 mmHg 49%
    15:00 +22°C° 0 mm 4 mps 721 mmHg 50%
    16:00 +21°C° 0 mm 4 mps 721 mmHg 51%
    17:00 +19°C° 0 mm 4 mps 721 mmHg 60%
    18:00 +17°C° 0 mm 3 mps 721 mmHg 69%
    19:00 +15°C° 0 mm 2 mps 721 mmHg 78%
    20:00 +14°C° 0 mm 2 mps 721 mmHg 82%
    21:00 +13°C° 0 mm 2 mps 722 mmHg 87%
    22:00 +12°C° 0 mm 1 mps 722 mmHg 91%
    23:00 +12°C° 0 mm 1 mps 722 mmHg 92%

    25 April, Thursday

    Time Temperature Precipitation Wind Pressure Humidity
    00:00 +12°C° 0 mm 1 mps 722 mmHg 93%
    01:00 +12°C° 0 mm 1 mps 722 mmHg 93%
    02:00 +12°C° 0 mm 1 mps 722 mmHg 93%
    03:00 +11°C° 0 mm 1 mps 723 mmHg 93%
    04:00 +11°C° 0 mm 1 mps 723 mmHg 94%
    05:00 +12°C° 0 mm 1 mps 723 mmHg 89%
    06:00 +14°C° 0 mm 1 mps 723 mmHg 84%
    07:00 +15°C° 0 mm 1 mps 724 mmHg 80%
    08:00 +18°C° 0 mm 1 mps 724 mmHg 71%
    09:00 +19°C° 0 mm 2 mps 724 mmHg 62%
    10:00 +21°C° 0 mm 2 mps 724 mmHg 54%
    11:00 +22°C° 0 mm 3 mps 724 mmHg 50%
    12:00 +24°C° 0 mm 3 mps 724 mmHg 47%
    13:00 +25°C° 0 mm 4 mps 724 mmHg 43%
    14:00 +25°C° 0 mm 4 mps 723 mmHg 44%
    15:00 +25°C° 0 mm 4 mps 723 mmHg 45%
    16:00 +25°C° 0 mm 4 mps 722 mmHg 46%
    17:00 +22°C° 0 mm 3 mps 722 mmHg 55%
    18:00 +20°C° 0 mm 3 mps 722 mmHg 64%
    19:00 +17°C° 0 mm 2 mps 722 mmHg 72%
    20:00 +16°C° 0 mm 2 mps 722 mmHg 76%
    21:00 +15°C° 0 mm 1 mps 722 mmHg 81%
    22:00 +14°C° 0 mm 1 mps 722 mmHg 85%
    23:00 +14°C° 0 mm 1 mps 722 mmHg 87%
    Show more